Temperature
9 9 9 9 9 10 10 10 10 10 10 10 10 10 10 10 9 9 9 8 8 8 8 8 8 8 7 7 7 7 7 7 6 7 8 8 8 8 8 8 8 8 8
9 9 9 9 9 9 9 9 9 9 9 9 9 9 9 9 9 8 8 8 8 8 8 8 8 7 7 7 7 7 7 7 6 7 7 7 7 7 7 7 7 7 7
8 8 8 8 8 8 8 8 8 8 8 9 9 9 9 9 8 8 8 8 8 8 7 7 7 7 7 7 7 7 7 6 6 6 7 7 7 7 7 7 7 7 7
7 7 7 7 7 7 7 8 8 8 8 8 8 8 8 8 8 7 7 7 7 7 7 7 7 7 7 7 7 7 6 6 6 6 6 6 6 6 6 6 6 6 6
6 6 6 6 6 7 7 7 7 7 7 7 7 7 7 7 7 7 7 7 7 7 7 7 7 7 7 7 7 6 6 6 6 6 6 6 6 6 6 6 6 6 6
6 6 6 6 6 6 6 6 6 6 6 6 6 7 7 7 7 7 7 7 7 7 7 7 7 7 7 7 7 6 6 6 6 6 5 5 6 6 6 5 5 5 5
5 5 5 5 5 5 5 5 5 5 6 6 6 6 6 6 6 6 6 6 6 6 6 6 6 7 7 6 6 6 6 6 6 6 5 5 5 5 5 5 5 5 5
4 4 4 4 4 5 5 5 5 5 5 5 5 5 5 6 6 6 6 6 6 6 6 6 6 6 6 6 6 6 6 6 5 5 5 5 5 5 5 5 4 4 4
4 3 3 3 3 4 4 4 4 4 4 4 4 4 4 5 5 5 5 5 5 5 5 5 6 6 6 6 5 5 5 5 5 5 5 4 4 4 4 4 4 3 3
3 3 3 3 3 3 3 3 3 3 3 3 3 4 4 4 4 4 4 4 5 5 5 5 5 5 5 5 5 5 5 5 4 4 4 4 3 3 3 3 3 3 3
2 2 2 2 2 2 2 2 2 2 2 3 3 3 3 3 4 4 4 4 4 4 4 4 4 4 4 4 4 4 4 4 4 3 3 3 3 3 3 2 2 2 2
1 1 1 2 2 2 2 2 2 2 2 2 2 2 2 3 3 3 3 3 3 3 3 3 3 3 4 4 3 3 3 3 3 3 3 2 2 2 2 2 2 2 1
1 1 1 1 1 1 1 1 1 1 1 1 1 1 2 2 2 2 2 2 2 2 2 3 3 3 3 3 3 3 3 2 2 2 2 2 1 1 1 1 1 1 0
-0 0 0 0 0 0 0 0 0 0 0 0 0 0 1 1 1 1 1 2 2 2 2 2 2 2 2 2 2 2 2 2 2 1 1 1 1 1 0 0 0 -0 -0
-1 -1 -1 -1 -1 -1 -1 -1 -1 -1 -0 -0 -0 -0 0 0 0 1 1 1 1 1 1 1 1 1 1 1 1 1 1 1 1 1 1 0 0 0 -0 -0 -1 -1 -1
-2 -2 -2 -2 -2 -2 -2 -1 -1 -1 -1 -1 -1 -1 -1 -0 -0 0 0 1 1 1 1 1 1 1 1 1 0 1 1 0 0 0 -0 -0 -0 -1 -1 -1 -1 -2 -2
-3 -3 -3 -3 -3 -3 -3 -2 -2 -2 -2 -1 -1 -1 -1 -1 -1 -0 -0 0 0 0 0 0 0 0 -0 -0 -0 -0 -0 -0 -0 -1 -1 -1 -1 -1 -1 -2 -2 -2 -3
-3 -3 -3 -3 -3 -3 -3 -3 -3 -3 -3 -2 -2 -2 -1 -1 -1 -1 -1 -0 -1 -1 -1 -1 -1 -1 -1 -1 -1 -1 -1 -1 -1 -1 -1 -1 -1 -2 -2 -2 -3 -3 -3
-4 -4 -4 -4 -4 -4 -4 -3 -3 -3 -3 -3 -3 -2 -2 -2 -2 -1 -1 -1 -1 -1 -1 -1 -1 -1 -1 -1 -1 -1 -1 -2 -2 -2 -2 -2 -2 -2 -3 -3 -3 -3 -4
-4 -4 -4 -4 -4 -4 -4 -4 -4 -4 -4 -4 -3 -3 -3 -2 -2 -2 -2 -2 -2 -2 -2 -2 -2 -2 -2 -2 -2 -2 -2 -2 -2 -2 -2 -2 -3 -3 -3 -3 -4 -4 -4
-5 -4 -4 -4 -4 -4 -4 -4 -4 -4 -4 -4 -4 -4 -4 -3 -3 -3 -3 -3 -3 -2 -2 -2 -2 -2 -2 -2 -2 -2 -3 -3 -3 -3 -3 -3 -3 -3 -4 -4 -4 -4 -5
-5 -5 -5 -5 -5 -5 -5 -5 -5 -5 -4 -4 -4 -4 -4 -4 -4 -3 -3 -3 -3 -3 -3 -3 -3 -3 -3 -3 -3 -3 -3 -3 -3 -3 -3 -4 -4 -4 -4 -4 -4 -5 -5
-5 -5 -5 -5 -5 -5 -5 -5 -5 -5 -5 -5 -5 -5 -4 -4 -4 -4 -4 -4 -3 -3 -3 -3 -3 -3 -3 -3 -3 -3 -3 -3 -3 -4 -4 -4 -4 -4 -4 -4 -5 -5 -5
-6 -6 -5 -5 -6 -6 -6 -6 -5 -5 -5 -5 -5 -5 -5 -5 -5 -4 -4 -4 -4 -4 -4 -4 -4 -4 -4 -4 -4 -4 -4 -4 -4 -4 -4 -4 -4 -5 -5 -5 -5 -5 -5
-6 -6 -6 -6 -6 -6 -6 -6 -6 -6 -6 -5 -5 -5 -5 -5 -5 -5 -5 -4 -4 -4 -4 -4 -4 -4 -4 -4 -4 -4 -4 -4 -4 -4 -4 -5 -5 -5 -5 -5 -5 -5 -6
-6 -6 -6 -6 -7 -7 -6 -6 -6 -6 -6 -6 -6 -6 -6 -6 -5 -5 -5 -5 -5 -5 -5 -5 -5 -5 -5 -5 -5 -4 -4 -4 -5 -5 -5 -5 -5 -5 -5 -5 -5 -6 -6
Wind_Speed
6 6 6 6 6 7 7 8 8 8 8 8 9 10 10 11 11 12 13 12 13 13 12 13 15 12 11 10 9 9 9 9 12 9 5 5 7 7 6 7 8 9 10
6 6 6 6 6 6 8 8 7 7 7 8 8 9 10 11 11 12 13 12 13 14 13 14 14 12 13 11 10 11 10 10 11 12 7 5 7 7 6 6 6 7 7
6 6 6 6 6 7 7 7 7 7 7 7 7 8 10 10 11 11 12 12 13 13 13 13 14 13 14 11 11 11 10 9 9 9 8 5 4 3 4 4 5 5 5
5 5 6 6 7 7 7 6 6 6 7 7 7 8 8 9 10 11 11 12 12 13 13 13 13 14 14 13 12 12 10 9 8 8 7 5 4 2 3 4 4 4 4
6 6 7 7 7 6 6 6 6 6 7 6 7 7 7 7 8 9 10 11 11 12 12 12 12 13 15 13 11 10 10 9 8 7 7 5 4 3 4 4 5 4 3
6 6 6 7 7 6 6 6 6 6 6 6 6 7 7 7 9 10 9 9 9 10 10 10 10 11 13 14 14 13 12 11 10 9 8 7 8 6 5 4 4 3 4
6 7 7 7 7 7 7 6 6 6 6 6 6 6 7 8 9 9 10 8 8 9 9 8 7 7 10 10 12 12 12 13 12 10 9 9 8 7 6 6 6 5 5
7 7 8 7 7 7 6 6 6 6 6 6 6 6 6 7 9 9 8 7 7 7 8 8 8 7 8 9 9 9 9 9 10 9 9 8 7 6 7 7 6 3 0
7 8 8 8 8 8 7 6 6 5 5 6 5 5 6 7 7 7 6 5 5 6 6 6 7 7 8 8 9 9 8 6 6 7 7 6 5 5 5 4 3 3 2
8 8 8 8 7 7 7 7 5 5 5 5 5 5 5 6 6 6 5 3 4 4 4 5 6 6 6 7 8 8 8 7 4 4 4 3 3 4 6 5 6 4 2
8 8 8 8 7 7 6 6 6 5 4 5 5 5 4 5 6 6 5 3 3 3 3 4 4 4 4 5 6 6 7 5 4 5 4 2 2 2 2 1 2 4 4
8 8 8 8 7 6 5 5 5 5 5 5 5 5 4 4 5 5 5 4 3 3 3 3 2 3 4 4 4 4 5 5 4 4 3 2 2 2 1 2 2 1 2
7 7 8 7 6 5 5 5 5 4 4 4 4 5 5 4 4 6 6 6 5 3 2 2 2 2 3 3 3 4 4 3 3 3 3 2 2 2 2 2 3 4 5
7 7 7 6 6 6 5 4 4 4 4 4 4 5 5 4 4 3 3 3 2 1 0 1 2 2 2 2 2 2 2 3 4 3 3 3 3 3 3 2 2 3 2
7 7 6 6 6 6 5 4 4 4 4 5 4 4 4 5 6 6 5 3 1 1 1 1 2 2 2 2 2 2 2 2 3 3 4 4 3 3 2 2 2 2 1
6 6 5 5 5 5 5 5 6 6 8 9 8 7 5 6 8 7 7 4 2 2 2 2 2 2 2 2 2 2 2 2 2 3 4 4 4 3 3 2 2 2 2
6 6 5 5 5 5 5 5 6 7 8 8 9 9 8 9 8 7 6 4 3 3 2 1 1 1 2 2 2 2 1 2 3 3 3 3 3 3 3 3 3 2 2
5 6 5 4 4 4 4 4 4 5 6 6 7 9 10 10 8 7 6 5 3 3 2 1 1 1 2 2 2 2 2 2 2 3 3 3 4 4 4 3 3 2 2
5 4 4 4 4 4 4 4 4 4 4 5 6 7 9 9 7 7 6 3 2 2 2 1 1 1 1 1 2 2 2 2 3 3 3 3 4 4 3 3 3 3 2
4 6 6 4 3 4 3 3 4 4 4 4 5 5 5 5 4 5 4 3 2 2 2 1 1 1 1 1 1 2 2 2 3 3 3 3 3 4 4 4 3 3 2
4 5 6 4 3 3 3 3 3 3 4 4 5 6 7 4 4 4 3 3 2 2 1 1 1 1 1 1 1 2 2 2 2 2 3 3 3 3 3 3 3 2 2
3 3 3 3 3 3 3 3 3 3 4 4 4 5 7 4 3 3 3 3 3 2 1 1 1 1 0 1 1 2 2 2 2 3 3 3 3 3 3 3 3 2 2
3 3 3 3 3 4 4 3 3 3 4 4 4 4 4 4 3 3 3 3 3 2 2 1 1 1 1 1 1 2 3 3 3 3 3 3 3 3 3 3 3 3 2
3 3 3 3 3 3 3 3 3 3 3 4 4 4 4 4 3 3 3 3 2 2 2 2 1 1 1 1 1 1 2 2 3 3 4 4 3 3 3 3 3 3 3
2 2 3 3 3 3 3 3 3 3 3 4 4 4 4 3 3 3 3 3 3 3 3 2 2 2 1 1 1 0 2 3 3 3 3 4 4 4 3 3 3 3 3
3 3 3 2 2 3 3 3 3 3 3 3 3 3 3 3 3 3 3 2 3 3 3 3 3 2 2 1 1 1 2 3 3 3 3 3 3 3 3 3 4 3 3
Wind_Direction
298 292 286 280 274 268 263 259 258 258 253 248 244 235 231 226 223 224 226 223 223 227 228 228 229 227 228 224 222 224 229 232 250 260 244 230 215 224 234 227 227 226 229
295 294 290 286 281 277 272 268 265 264 260 253 249 241 237 231 226 225 230 228 227 228 230 229 230 226 227 224 222 225 228 228 238 253 254 236 229 223 222 228 231 228 229
299 299 298 295 289 285 281 276 273 270 268 259 253 246 242 236 232 229 229 229 229 231 230 230 230 224 228 225 222 225 228 230 232 242 250 243 236 225 220 238 235 232 232
305 303 299 297 293 291 287 284 280 277 275 267 258 252 249 242 238 236 233 232 232 233 233 231 231 227 228 222 222 223 224 226 229 236 245 243 237 221 200 229 241 228 232
311 308 304 304 303 302 298 295 293 291 285 279 271 263 259 251 246 240 237 238 236 238 237 234 231 229 230 223 221 217 215 222 225 230 238 238 229 211 218 217 232 231 238
310 305 306 309 309 306 300 297 296 291 290 282 278 266 261 262 269 261 248 241 240 239 241 238 234 228 230 222 219 214 210 215 220 224 233 235 235 229 220 211 218 217 245
315 315 314 312 311 305 302 300 296 293 294 287 277 274 270 269 275 270 258 246 241 239 239 238 239 235 227 218 217 215 215 217 216 219 227 232 233 228 212 210 215 217 229
318 320 321 318 315 310 305 297 292 291 289 285 281 279 277 281 284 277 268 249 241 240 239 236 232 234 225 213 210 211 216 220 222 221 225 228 227 218 210 209 213 207 207
324 324 322 320 317 315 312 304 300 297 292 291 291 289 283 283 284 284 279 255 245 246 246 241 235 234 223 204 201 204 210 219 215 207 212 212 206 198 183 166 170 179 215
319 317 315 313 312 312 310 308 309 303 298 302 302 297 288 287 292 288 280 254 258 256 250 245 244 233 218 196 201 202 209 211 190 193 202 209 205 185 174 189 191 189 183
317 316 315 315 314 310 311 312 312 312 314 311 308 308 303 301 304 298 285 256 248 254 254 250 242 215 200 194 201 206 207 192 173 174 172 167 145 142 153 163 181 186 185
320 319 318 317 318 319 314 314 317 321 323 318 318 319 318 316 322 309 297 279 265 244 253 245 219 190 185 191 198 190 178 171 158 156 159 164 157 145 119 104 97 91 125
321 320 319 318 319 317 313 315 319 321 322 320 317 315 320 326 327 326 313 299 285 264 239 201 179 164 165 181 179 165 161 161 154 162 168 172 158 144 128 109 81 76 63
318 319 320 320 323 325 322 320 320 320 321 321 321 317 318 322 323 327 324 321 314 290 208 138 127 117 126 132 141 147 153 154 155 162 151 140 126 129 133 128 125 117 88
320 318 321 325 324 327 330 326 320 314 315 318 313 306 308 309 317 327 328 321 300 233 83 98 95 96 100 101 100 104 111 124 132 132 137 136 132 130 127 115 118 112 121
319 319 319 322 322 326 330 333 335 332 335 336 333 325 318 321 326 335 337 337 353 57 77 99 109 116 127 127 126 116 115 125 129 132 134 138 140 141 130 116 115 124 134
307 310 312 315 318 322 324 327 330 340 345 345 345 343 342 338 338 342 351 8 30 61 77 92 112 133 133 133 138 143 151 140 132 132 137 143 144 140 135 134 137 135 139
306 306 310 309 314 316 317 318 320 326 333 336 341 344 347 347 348 357 13 31 36 38 59 70 87 121 137 145 149 144 138 135 134 139 144 149 148 144 145 148 152 155 160
309 309 309 310 312 314 317 319 321 323 325 326 332 340 350 353 0 8 19 35 32 24 30 35 51 85 115 137 145 148 150 155 154 151 150 152 151 146 148 153 156 154 147
309 312 319 317 318 324 328 330 329 327 327 328 330 332 344 355 358 358 6 10 13 12 21 30 33 55 92 121 138 146 139 138 146 147 151 152 152 151 156 159 162 169 182
308 309 317 320 320 319 321 322 322 324 326 325 327 333 345 347 344 348 353 353 350 349 355 7 15 48 86 117 127 135 143 147 146 151 154 152 150 152 157 161 166 171 172
307 309 315 314 314 316 319 321 322 322 322 325 329 335 344 349 344 343 344 343 345 346 345 351 348 339 238 173 162 157 154 154 156 152 150 150 153 156 157 162 167 168 165
311 311 312 312 312 315 324 325 323 321 323 327 329 332 338 342 340 339 340 340 347 354 355 3 24 30 37 51 142 173 174 179 175 166 158 157 160 163 162 165 169 170 172
307 304 306 313 315 315 316 318 319 321 324 326 327 330 333 335 336 340 342 344 355 1 6 13 22 41 46 35 42 137 160 160 158 165 163 165 168 167 165 166 175 177 178
315 312 310 311 311 312 315 318 321 325 326 325 326 329 332 336 344 353 358 3 9 15 15 15 22 28 35 19 338 159 143 144 154 154 156 157 163 169 169 169 174 172 173
324 320 316 314 313 311 312 315 320 323 324 323 324 326 332 340 346 353 0 9 16 20 18 17 24 25 25 27 55 131 137 142 147 152 151 153 160 166 165 166 164 168 169
Height
1392 1390 1389 1387 1386 1385 1384 1383 1381 1380 1380 1379 1379 1380 1380 1380 1381 1382 1383 1384 1386 1387 1389 1390 1392 1394 1396 1398 1400 1401 1402 1403 1401 1400 1402 1403 1404 1405 1406 1407 1407 1408 1409
1387 1385 1383 1381 1380 1378 1377 1376 1374 1373 1373 1372 1372 1372 1372 1372 1373 1374 1375 1375 1377 1378 1380 1382 1383 1385 1387 1389 1391 1392 1393 1394 1394 1392 1393 1395 1395 1396 1398 1398 1399 1400 1401
1382 1380 1378 1376 1374 1372 1370 1369 1368 1366 1365 1365 1364 1364 1364 1364 1365 1366 1367 1367 1368 1370 1372 1373 1375 1377 1378 1380 1382 1383 1385 1386 1387 1386 1386 1387 1388 1389 1390 1391 1392 1392 1394
1378 1375 1372 1370 1368 1366 1364 1362 1361 1360 1359 1358 1357 1357 1357 1357 1357 1358 1358 1359 1360 1361 1363 1365 1367 1368 1369 1371 1373 1375 1377 1378 1379 1379 1379 1380 1380 1381 1382 1383 1384 1385 1386
1373 1370 1368 1365 1363 1360 1358 1357 1355 1354 1353 1351 1351 1350 1350 1349 1349 1350 1350 1351 1352 1353 1355 1356 1358 1360 1361 1363 1365 1366 1368 1370 1370 1371 1372 1372 1373 1374 1375 1376 1377 1378 1379
1369 1366 1363 1361 1358 1355 1353 1351 1350 1348 1346 1345 1344 1344 1343 1343 1342 1343 1344 1344 1344 1345 1346 1348 1349 1351 1353 1355 1357 1358 1360 1361 1362 1363 1364 1365 1365 1367 1368 1369 1370 1371 1371
1365 1362 1358 1356 1353 1351 1349 1346 1344 1342 1340 1339 1338 1337 1336 1336 1336 1336 1336 1337 1337 1338 1339 1340 1341 1342 1344 1346 1348 1350 1351 1353 1354 1356 1356 1357 1359 1360 1362 1363 1364 1364 1364
1361 1358 1355 1352 1349 1346 1344 1341 1339 1337 1335 1333 1332 1331 1330 1329 1330 1330 1330 1330 1330 1331 1332 1333 1334 1335 1336 1338 1340 1341 1343 1344 1346 1348 1349 1350 1353 1354 1355 1357 1357 1358 1358
1358 1354 1352 1349 1345 1342 1339 1337 1334 1332 1330 1329 1327 1326 1325 1324 1324 1324 1324 1324 1324 1325 1325 1326 1327 1327 1329 1331 1332 1334 1335 1337 1339 1341 1342 1344 1346 1347 1349 1350 1350 1351 1351
1354 1351 1348 1346 1342 1339 1335 1332 1330 1328 1326 1324 1322 1321 1320 1319 1318 1318 1318 1318 1318 1318 1319 1319 1321 1321 1322 1323 1326 1327 1328 1329 1332 1334 1335 1337 1339 1340 1342 1343 1344 1345 1345
1351 1348 1345 1341 1338 1335 1332 1329 1326 1324 1321 1320 1318 1316 1315 1314 1313 1313 1313 1313 1313 1313 1313 1313 1315 1315 1316 1318 1320 1321 1322 1325 1326 1328 1329 1331 1333 1334 1335 1337 1338 1340 1340
1347 1344 1340 1337 1334 1331 1329 1326 1323 1320 1317 1316 1314 1312 1311 1310 1309 1309 1309 1309 1309 1308 1308 1308 1309 1311 1311 1314 1315 1316 1318 1320 1321 1323 1324 1325 1327 1329 1330 1332 1333 1334 1336
1343 1340 1337 1334 1331 1328 1325 1323 1320 1317 1315 1313 1311 1309 1307 1307 1306 1305 1304 1304 1304 1303 1303 1303 1305 1306 1307 1309 1311 1312 1314 1316 1317 1318 1319 1321 1323 1325 1326 1327 1328 1330 1331
1339 1336 1333 1330 1327 1324 1322 1320 1318 1315 1313 1311 1309 1307 1305 1304 1302 1301 1300 1299 1299 1299 1299 1299 1301 1302 1303 1305 1307 1308 1310 1312 1313 1315 1316 1318 1320 1321 1322 1324 1325 1326 1327
1335 1332 1330 1327 1324 1321 1319 1318 1315 1313 1312 1310 1308 1306 1304 1301 1300 1299 1297 1296 1296 1296 1296 1296 1297 1298 1299 1301 1303 1305 1307 1308 1310 1311 1313 1314 1316 1318 1319 1321 1322 1323 1323
1332 1329 1327 1324 1322 1319 1316 1314 1313 1312 1309 1307 1306 1304 1302 1300 1298 1296 1295 1294 1293 1293 1293 1293 1294 1295 1297 1299 1301 1302 1304 1306 1307 1309 1310 1312 1313 1314 1316 1318 1319 1320 1321
1330 1327 1324 1322 1320 1317 1315 1312 1309 1308 1306 1305 1303 1301 1299 1298 1296 1295 1293 1292 1292 1292 1291 1291 1292 1294 1295 1297 1299 1300 1301 1303 1305 1307 1308 1309 1311 1312 1314 1315 1317 1318 1319
1327 1324 1322 1320 1318 1315 1313 1311 1309 1306 1304 1301 1301 1299 1298 1296 1294 1293 1292 1291 1290 1290 1290 1290 1292 1293 1294 1295 1297 1298 1300 1301 1303 1305 1306 1308 1309 1310 1312 1313 1314 1315 1317
1324 1322 1320 1318 1316 1314 1312 1310 1308 1306 1303 1301 1299 1298 1297 1295 1294 1292 1291 1290 1289 1289 1289 1290 1291 1292 1293 1294 1295 1296 1298 1299 1301 1302 1304 1305 1307 1308 1310 1311 1312 1313 1315
1321 1320 1318 1316 1314 1312 1310 1308 1306 1305 1303 1301 1299 1297 1295 1294 1292 1291 1291 1290 1289 1289 1289 1290 1290 1291 1291 1292 1293 1295 1296 1297 1299 1300 1302 1303 1305 1306 1307 1309 1310 1312 1313
1319 1317 1315 1314 1312 1310 1308 1307 1305 1303 1302 1300 1298 1297 1296 1294 1292 1291 1290 1290 1290 1289 1289 1289 1289 1290 1291 1291 1292 1293 1294 1296 1297 1299 1300 1301 1303 1304 1306 1307 1308 1310 1311
1317 1315 1313 1312 1310 1308 1307 1305 1304 1302 1301 1299 1297 1296 1295 1294 1292 1291 1291 1290 1290 1290 1289 1289 1289 1289 1290 1290 1291 1292 1293 1294 1296 1297 1298 1300 1301 1303 1304 1305 1307 1308 1309
1314 1312 1311 1309 1308 1307 1305 1304 1303 1301 1300 1298 1297 1295 1294 1293 1292 1291 1290 1290 1289 1289 1289 1289 1288 1288 1289 1290 1290 1291 1292 1293 1294 1295 1297 1298 1300 1301 1303 1304 1305 1307 1308
1312 1310 1309 1307 1306 1305 1304 1302 1301 1300 1299 1298 1296 1295 1294 1293 1292 1291 1290 1289 1289 1289 1288 1288 1288 1288 1289 1289 1290 1290 1291 1292 1293 1294 1295 1297 1298 1300 1301 1303 1304 1305 1306
1310 1308 1307 1306 1304 1303 1302 1301 1300 1299 1298 1297 1296 1295 1294 1293 1292 1291 1290 1289 1289 1288 1288 1288 1288 1288 1288 1288 1289 1289 1290 1291 1292 1293 1294 1296 1297 1298 1300 1301 1303 1304 1305
1308 1306 1305 1304 1303 1302 1301 1300 1299 1298 1297 1296 1295 1294 1293 1292 1291 1291 1290 1289 1289 1288 1288 1288 1288 1288 1287 1288 1288 1288 1289 1290 1291 1292 1293 1295 1296 1297 1298 1300 1301 1302 1303